Regional Weather Roundup
Issued by NWS

Home | Current Version | Previous Version | Graphics & Text | Print | Product List | Glossary On
Versions: 1 2 3 4 5 6 7 8 9 10 11 12 13 14 15 16 17 18 19 20 21 22 23 24 25 26 27 28 29 30 31 32 33 34 35 36 37 38 39 40 41 42 43 44 45 46 47 48 49 50
000
ASUS45 KSLC 280710
RWRUT

UTAH REGIONAL WEATHER ROUNDUP
NATIONAL WEATHER SERVICE SALT LAKE CITY UT
100 AM MDT MON JUL 28 2014

UTZ001>011-023>025-280800-

NORTHERN UTAH

CITY           SKY/WX    TMP DP  RH WIND       PRES   REMARKS
HILL AFB       CLOUDY    80  38  21 SE3       30.17R
LOGAN          CLEAR     64  47  53 VRB3      30.15R
OGDEN          MOCLDY    81  37  20 S10       30.13R
PROVO AIRPORT  CLOUDY    82  48  30 S12G18    30.18F
SALT LAKE CITY CLOUDY    84  39  20 SE10      30.12R
VERNAL         PTCLDY    71  44  37 NW3       30.24R
WENDOVER       CLOUDY    84  45  24 SW12      30.15S
HEBER CITY     CLOUDY    70  46  43 CALM      30.26S
WEST JORDAN    CLEAR     84  54  34 SE12G17   30.17R

$$

UTZ012>022-026-027-280800-

SOUTHERN UTAH

CITY           SKY/WX    TMP DP  RH WIND       PRES   REMARKS
BRYCE CANYON   CLOUDY    59  54  83 SE7       30.47S
CEDAR CITY     CLOUDY    69  54  58 CALM      30.30R
MILFORD        MOCLDY    74  52  46 S6        30.22S
MOAB/CYNLANDS  MOCLDY    73  63  70 E5        30.24F
PRICE          MOCLDY    75  46  35 E7        30.31S
ST GEORGE      CLOUDY    81  55  41 E18G24    30.13R

$$

REGIONAL REPORTS     COLORADO/ARIZONA

CITY           SKY/WX    TMP DP  RH WIND       PRES   REMARKS
CRAIG, CO      PTCLDY    52  46  80 E3        30.34R
GRAND JUNCTION CLOUDY    76  50  40 E15       30.24R
RIFLE          MOCLDY    70  46  42 SE5       30.30R
MONTROSE       MOCLDY    70  51  51 S5        30.36R
CORTEZ         MOCLDY    67  57  70 CALM      30.39R
PAGE, AZ       CLOUDY    79  54  41 SE7       30.23R
GRAND CANYON   LGT RAIN  61  58  90 SW5       30.44S
KINGMAN        CLOUDY    79  55  43 SE6       30.13R
FLAGSTAFF      CLOUDY    63  50  62 VRB3      30.44S

$$

REGIONAL REPORTS    NEVADA/IDAHO/WYOMING

CITY           SKY/WX    TMP DP  RH WIND       PRES   REMARKS
LAS VEGAS, NV  CLOUDY    82  62  50 S10       30.00R
ELY            CLOUDY    64  51  62 S8        30.36S
ELKO           CLOUDY    77  45  32 W14       30.22R
POCATELLO, ID  CLEAR     72  33  24 E5        30.14S
BURLEY         MOCLDY    68  50  52 CALM      30.09F
EVANSTON, WY   MOCLDY    69  25  19 E8        30.38S
ROCK SPRINGS   CLEAR     67  40  37 E3        30.38S

$$



USA.gov is the U.S. government's official web portal to all federal, state and local government web resources and services.